Probability
0 0 0 0 0 0 0 0 0 0 0 0 0 0 0 0 0 0 0 0 0 0 0 0 0 0 0 0 0 0 0 0 0 0 0 0 0 0 0 0 0 0 0 0
0 0 0 0 0 0 0 0 0 0 0 0 0 0 0 0 0 0 0 0 0 0 0 0 0 0 0 0 0 0 0 0 0 0 0 0 0 0 0 0 0 0 0 0
0 0 0 0 0 0 0 0 0 0 0 0 0 0 0 0 0 0 0 0 0 0 0 0 0 0 0 0 0 0 0 0 0 0 0 0 0 0 0 0 0 0 0 0
0 0 0 0 0 0 0 0 0 0 0 0 0 0 0 0 0 0 0 0 0 0 0 0 0 0 0 0 0 0 0 0 0 0 0 0 0 0 0 0 0 0 0 0
0 0 0 0 0 0 0 0 0 0 0 0 0 0 0 0 0 0 0 0 0 0 0 0 0 0 0 0 0 0 0 0 0 0 0 0 0 0 0 0 0 0 0 0
0 0 0 0 0 0 0 0 0 0 0 0 0 0 0 0 0 0 0 0 0 0 0 0 0 0 0 0 0 0 0 0 0 0 0 0 0 0 0 0 0 0 0 0
0 0 0 0 0 0 0 0 0 0 0 0 0 0 0 0 0 0 0 0 0 0 0 0 0 0 0 0 0 0 0 0 0 0 0 0 0 0 0 0 0 0 0 0
0 0 0 0 0 0 0 0 0 0 0 0 0 0 0 0 0 0 0 0 0 0 0 0 0 0 0 0 0 0 0 0 0 0 0 0 0 0 0 0 0 0 0 0
0 0 0 0 0 0 0 0 0 0 0 0 0 0 0 0 0 0 0 0 0 0 0 0 0 0 0 0 0 0 0 0 0 0 0 0 0 0 0 0 0 0 0 0
0 0 0 0 0 0 0 0 0 0 0 0 0 0 0 0 0 0 0 0 0 0 0 0 0 0 0 0 0 0 0 0 0 0 0 0 0 0 0 0 0 0 0 0
0 0 0 0 0 0 0 0 0 0 0 0 0 0 0 0 0 0 0 0 0 0 0 0 0 0 0 0 0 0 0 0 0 0 0 0 0 0 0 0 0 0 0 0
0 0 0 0 0 0 0 0 0 0 0 0 0 0 0 0 0 0 0 0 0 0 0 0 0 0 0 0 0 0 0 0 0 0 0 0 0 0 0 0 0 0 0 0
0 0 0 0 0 0 0 0 0 0 0 0 0 0 0 0 0 0 0 0 0 0 0 0 0 0 0 0 0 0 0 0 0 0 0 0 0 0 0 0 0 0 0 0
0 0 0 0 0 0 0 0 0 0 0 0 0 0 0 0 0 0 0 0 0 0 0 0 0 0 0 0 0 0 0 0 0 0 0 0 0 0 0 0 0 0 0 0
0 0 0 0 0 0 0 0 0 0 0 0 0 0 0 0 0 0 0 0 0 0 0 0 0 0 0 0 0 0 0 0 0 0 0 0 0 0 0 0 0 0 0 0
0 0 0 0 0 0 0 0 0 0 0 0 0 0 0 0 0 0 0 0 0 0 0 0 0 0 0 0 0 0 0 0 0 0 0 0 0 0 0 0 0 0 0 0
0 0 0 0 0 0 0 0 0 0 0 0 0 0 0 0 0 0 0 0 0 0 0 0 0 0 0 0 0 0 0 0 0 0 0 0 0 0 0 0 0 0 0 0
0 0 0 0 0 0 0 0 0 0 0 0 0 0 0 0 0 0 0 0 0 0 0 0 0 0 0 0 0 0 0 0 0 0 0 0 0 0 0 0 0 0 0 0
0 0 0 0 0 0 0 0 0 0 0 0 0 0 0 0 0 0 0 0 0 0 0 0 0 0 0 0 0 0 0 0 0 0 0 0 0 0 0 0 0 0 0 0
0 0 0 0 0 0 0 0 0 0 0 0 0 0 0 0 0 0 0 0 0 0 0 0 0 0 0 0 0 0 0 0 0 0 0 0 0 0 0 0 0 0 0 0
0 0 0 0 0 0 0 0 0 0 0 0 0 0 0 0 0 0 0 0 0 0 0 0 0 0 0 0 0 0 0 0 0 0 0 0 0 0 0 0 0 0 0 0
0 0 0 0 0 0 0 0 0 0 0 0 0 0 0 0 0 0 0 0 0 0 0 0 0 0 0 0 0 0 0 0 0 0 0 0 0 0 0 0 0 0 0 0
0 0 0 0 0 0 0 0 0 0 0 0 0 0 0 0 0 0 0 0 0 0 0 0 0 0 0 0 0 0 0 0 0 0 0 0 0 0 0 0 0 0 0 0
0 0 0 0 0 0 0 0 0 0 0 0 0 0 0 0 0 0 0 0 0 0 0 0 0 0 0 0 0 0 0 0 0 0 0 0 0 0 0 0 0 0 0 0
0 0 0 0 0 0 0 0 0 0 0 0 0 0 0 0 0 0 0 0 0 0 0 0 0 0 0 0 0 0 0 0 0 0 0 0 0 0 0 0 0 0 0 0
0 0 0 0 0 0 0 0 0 0 0 0 0 0 0 0 0 0 0 0 0 0 0 0 0 0 0 0 0 0 0 0 0 0 0 0 0 0 0 0 0 0 0 0
Wind_Speed
10 11 16 19 18 9 10 12 13 9 5 9 15 18 17 12 11 14 13 13 14 15 14 12 14 15 15 16 16 16 16 15 13 10 9 9 9 8 8 8 10 11 10 11
10 19 20 15 14 10 10 12 11 5 3 6 11 17 17 16 15 15 16 16 16 14 12 13 14 15 17 18 18 18 18 17 16 12 10 8 8 8 9 8 10 11 11 11
21 13 15 15 15 15 13 13 11 6 3 4 6 15 19 18 16 15 15 16 16 16 16 14 15 16 17 19 20 17 19 18 17 16 10 8 7 6 7 9 9 11 12 12
19 10 16 19 19 18 14 11 8 6 6 6 7 11 13 14 16 17 18 17 17 17 16 15 14 16 18 19 17 18 18 18 17 16 14 15 12 11 12 9 9 11 12 12
16 15 20 23 21 18 8 7 6 5 6 7 8 11 11 8 14 17 18 19 18 17 17 16 16 16 16 15 15 15 17 17 17 17 18 17 15 13 10 10 11 11 11 12
8 8 15 14 13 13 10 8 5 2 3 11 14 13 12 10 14 13 15 17 17 16 15 15 13 11 11 11 12 13 15 16 16 18 18 18 18 16 13 13 11 10 8 9
9 8 6 8 13 11 12 10 6 6 8 11 5 11 14 10 11 12 12 12 12 12 13 13 12 12 12 12 12 13 15 16 16 17 18 18 18 17 16 14 12 11 8 8
18 15 16 13 15 16 19 18 11 10 9 7 6 13 11 8 7 9 10 10 8 9 9 10 11 10 10 11 11 12 14 14 15 16 16 15 15 12 11 13 11 11 9 9
19 15 13 12 8 16 17 16 8 3 1 4 9 9 11 9 9 11 12 11 11 10 8 8 8 8 8 9 10 11 12 12 13 14 14 13 13 13 12 11 11 9 8 7
11 11 12 10 6 6 11 12 7 8 8 9 9 9 9 7 11 11 11 11 9 6 6 6 6 6 6 6 7 8 9 10 10 11 10 8 11 11 10 9 10 9 8 8
8 10 11 12 17 19 13 13 11 10 8 8 8 8 7 10 9 9 9 6 6 6 5 5 4 4 4 4 5 6 7 8 8 8 9 9 8 8 9 8 9 8 7 8
7 7 10 13 6 11 14 16 17 13 10 9 7 8 3 7 6 5 6 4 4 4 4 4 4 4 5 5 5 6 6 6 6 7 7 7 6 7 7 7 7 7 7 7
11 10 11 7 5 8 13 14 18 11 7 7 9 10 2 4 5 6 6 5 4 3 3 3 3 4 5 5 5 5 5 5 5 5 6 6 6 7 7 6 6 6 7 7
10 7 11 18 14 16 16 17 19 15 10 13 17 15 7 6 6 6 5 5 4 4 4 4 4 5 5 5 5 6 6 5 5 5 5 6 6 6 6 5 6 6 6 7
8 7 7 6 7 17 17 20 22 24 23 19 21 21 17 11 8 7 5 5 5 5 5 6 5 5 5 6 6 6 6 6 6 6 6 5 5 5 5 5 5 5 5 5
9 9 7 4 7 12 13 22 26 28 26 25 19 20 14 9 6 7 8 7 8 8 7 6 6 6 6 7 7 7 7 7 7 7 6 5 5 5 5 5 5 6 6 6
11 9 10 7 6 5 14 25 27 26 25 24 27 23 9 10 12 12 10 10 10 9 7 7 7 7 7 7 7 8 7 7 7 6 6 5 5 5 5 5 6 6 6 6
13 9 5 7 8 15 15 13 20 25 27 25 19 12 14 16 13 9 9 10 10 8 7 6 6 5 5 5 6 6 6 7 7 6 6 6 6 6 5 6 6 6 5 5
12 11 6 8 11 14 8 9 17 20 23 22 22 16 12 8 4 9 9 8 8 6 5 4 3 3 4 5 6 7 6 6 6 6 6 6 6 6 6 6 6 6 6 5
8 9 8 9 12 17 12 9 9 9 17 16 19 18 14 10 11 13 7 6 5 3 2 2 3 4 4 4 6 7 7 6 6 6 5 5 6 6 7 7 6 5 5 6
12 9 13 11 11 11 5 7 13 15 14 8 15 17 16 16 14 4 5 4 4 3 3 3 4 4 3 4 6 6 6 5 4 4 5 5 5 5 6 6 5 6 6 6
16 13 13 11 12 12 6 12 15 9 2 4 7 9 11 10 6 4 5 5 5 4 4 4 5 4 4 4 5 6 4 3 4 5 5 5 5 5 5 6 6 6 7 7
12 11 8 11 9 2 9 8 3 2 3 3 4 5 8 7 6 6 5 5 4 4 4 4 6 6 5 4 4 5 4 4 5 5 5 5 5 5 5 6 7 6 6 5
3 2 5 4 4 3 4 1 1 1 2 2 2 4 6 7 7 7 6 5 5 5 5 4 6 6 5 4 5 4 4 4 6 6 5 5 5 5 5 4 5 5 6 6
5 6 5 5 2 2 2 3 2 2 4 4 5 4 5 8 7 7 6 5 5 5 5 4 5 5 5 5 5 4 4 4 6 6 5 4 4 4 4 3 3 4 3 4
3 5 7 7 7 6 6 4 4 4 4 4 5 6 5 6 7 7 6 5 5 5 5 5 6 6 5 5 5 4 3 3 5 5 4 3 3 3 3 4 3 3 2 3
Wind_Direction
176 192 204 202 206 217 202 209 215 217 193 212 231 242 245 238 234 239 236 230 228 231 230 214 208 205 206 206 206 205 203 202 197 195 198 202 207 208 210 212 212 209 207 204
176 215 211 203 199 196 198 211 217 215 197 227 248 253 251 245 240 239 238 234 231 231 225 213 208 204 205 207 208 208 208 204 200 200 198 201 203 209 210 209 214 212 210 206
199 205 191 187 189 196 207 211 207 198 164 219 268 261 246 241 237 239 240 240 239 232 228 217 208 207 207 209 209 208 209 207 205 203 199 197 201 204 205 211 213 214 212 209
211 193 180 189 197 196 210 210 204 190 202 219 218 260 244 235 233 234 235 233 233 231 229 224 211 209 210 211 209 210 209 208 206 202 203 201 203 210 212 211 212 211 211 210
201 188 186 195 198 193 191 165 179 200 227 250 222 251 256 218 236 234 231 231 231 231 228 224 216 213 213 211 209 209 210 209 205 203 206 207 214 218 216 210 211 211 210 211
184 187 198 202 186 176 135 115 95 125 219 246 230 232 258 224 229 231 228 227 228 228 228 228 223 216 215 209 208 208 209 210 206 206 208 211 214 215 213 210 209 209 208 208
175 184 191 171 156 164 167 158 167 193 213 237 200 226 250 236 228 230 231 230 232 230 229 227 221 214 212 207 205 205 207 210 206 206 210 213 216 216 215 213 213 209 207 207
183 191 190 183 181 180 190 189 192 196 210 219 191 235 251 251 251 253 257 257 256 246 235 229 225 219 214 209 205 204 207 209 207 207 210 213 215 216 218 217 213 211 209 208
189 191 174 187 180 172 183 204 213 187 124 232 225 247 274 259 254 247 243 241 242 241 232 226 221 215 214 208 205 205 207 208 207 208 208 210 211 213 215 213 213 213 209 199
179 173 171 167 147 188 189 171 167 193 193 228 241 240 242 224 224 226 229 232 234 230 225 218 214 209 208 205 202 202 207 209 207 206 207 207 210 212 212 209 207 205 198 188
168 154 158 173 190 181 167 180 187 194 218 216 237 242 223 224 219 225 228 230 222 216 216 211 205 200 196 193 191 191 195 200 201 202 203 203 205 204 205 205 203 197 190 185
162 143 166 190 199 200 191 190 188 191 203 217 234 256 218 227 240 241 244 241 233 220 209 202 192 184 186 188 186 187 187 190 192 193 195 197 193 192 196 197 192 183 181 181
154 141 139 165 195 195 206 200 201 203 184 195 214 242 229 223 236 232 239 244 238 216 198 192 192 194 192 189 187 185 183 181 177 179 184 182 184 186 187 181 174 172 170 168
150 162 186 196 195 182 195 199 200 198 208 217 226 235 240 226 224 222 222 226 222 211 207 204 204 202 196 191 190 187 183 177 171 172 176 178 179 175 166 159 159 159 158 161
164 182 195 202 170 176 194 199 200 210 218 223 230 232 233 230 224 225 217 208 219 226 220 214 211 204 196 193 192 189 183 175 171 171 174 174 163 149 144 144 142 138 139 144
175 176 167 175 182 185 200 207 206 215 222 229 235 238 235 233 231 232 224 217 224 228 224 215 211 207 204 200 194 188 184 177 174 175 172 159 151 144 142 138 133 130 131 134
173 160 169 185 166 166 222 212 210 217 222 223 231 236 217 223 226 231 230 224 226 227 221 215 212 208 206 199 191 188 182 172 173 172 163 157 152 148 145 138 136 139 140 138
172 161 158 149 156 216 231 207 209 219 226 225 232 226 211 221 224 224 224 224 230 231 223 218 212 204 196 183 177 168 164 168 170 171 168 162 158 153 146 144 145 141 138 143
180 162 153 174 204 237 244 201 200 210 232 226 230 228 217 209 229 247 233 226 230 227 217 211 196 179 162 161 157 148 152 161 169 175 174 169 163 157 155 156 151 144 140 138
176 169 168 182 206 226 230 185 180 186 242 223 218 221 210 180 221 238 206 200 212 200 181 164 140 127 136 142 143 145 155 166 180 178 167 160 160 162 162 157 149 137 135 132
176 183 194 195 217 241 221 157 152 190 234 205 203 211 202 203 222 212 134 150 153 138 120 114 116 113 113 125 136 144 153 172 162 138 139 144 150 152 149 141 137 134 132 130
180 186 196 195 218 229 164 159 185 209 153 160 184 195 192 200 189 145 128 128 126 119 107 106 106 93 82 107 132 136 146 129 120 126 131 134 135 136 138 137 136 137 140 138
193 190 184 199 214 139 165 184 204 133 165 174 173 174 172 170 169 155 139 129 118 110 102 100 108 100 80 74 107 125 116 116 120 118 120 123 124 125 136 144 147 146 150 153
212 126 153 195 224 186 182 155 42 79 124 101 110 133 145 150 148 139 131 124 115 104 101 104 110 107 89 71 74 90 104 116 121 122 122 125 129 130 134 142 154 161 165 165
173 171 174 198 189 146 216 209 183 119 94 91 83 91 123 129 128 131 128 123 117 106 97 98 104 100 89 79 76 75 92 113 118 119 121 127 132 137 141 144 159 172 181 184
171 179 188 201 182 187 199 189 154 131 124 120 111 93 87 113 126 123 119 113 110 106 99 97 94 93 86 81 75 65 69 103 122 126 131 137 140 141 144 145 131 137 154 172